Miami, FL

7:33 AM EDT on March 29, 2017 (GMT -0400)
Miami International

Weather History for KMIA - October, 2011

Change the Weather History Date:

Wednesday, October 5, 2011

  Actual Average Record
Temperature  
Mean Temperature 81 °F 82 °F  
Max Temperature 86 °F 88 °F 93 °F (2000)
Min Temperature 75 °F 75 °F 62 °F (1938)
Degree Days  
Heating Degree Days 0 0  
Month to date heating degree days 0 0  
Since 1 July heating degree days 0 0  
Cooling Degree Days 16 17  
Month to date cooling degree days 85 85  
Year to date cooling degree days 4071 3697  
Growing Degree Days 30 (Base 50)    
Moisture  
Dew Point 64 °F    
Average Humidity 60    
Maximum Humidity 69    
Minimum Humidity 51    
Precipitation  
Precipitation 0.00 in 0.26 in 9.95 in (1948)
Month to date precipitation 0.00 1.37  
Year to date precipitation 45.42 51.63  
Snow  
Snow 0.00 in - - ()
Month to date snowfall 0.0  
Since 1 July snowfall 0.0  
Since 1 September snowfall 0.0  
Snow Depth 0.00 in    
Sea Level Pressure  
Sea Level Pressure 30.03 in    
Wind  
Wind Speed 9 mph (NE)    
Max Wind Speed 21 mph    
Max Gust Speed 28 mph    
Visibility 10 miles    
Events      
T = Trace of Precipitation, MM = Missing Value Source: NWS Daily Summary

Daily Weather History Graph

Daily Weather History Graph

Search for Another Location

Airport or City:

Trip Planner

Search our weather history database for the weather conditions in past years. The results will help you decide how hot, cold, wet, or windy it might be!

Date:

Astronomy

Oct. 05, 2011 Rise Set
Actual Time 7:15 AM EDT 7:03 PM EDT
Civil Twilight 6:52 AM EDT 7:26 PM EDT
Nautical Twilight 6:25 AM EDT 7:53 PM EDT
Astronomical Twilight 5:58 AM EDT 8:20 PM EDT
Moon 3:11 PM EDT (10/5) 1:34 AM EDT (10/5)
Length of Visible Light 12h 34m
Length of Day
11h 48m
Waxing Gibbous, 66% of the Moon is Illuminated
Oct 5
Waxing Gibbous
Oct 11
Full
Oct 19
Last Quarter
Oct 26
New
Nov 2
First Quarter

Hourly Weather History & Observations

Time (EDT) Temp. Heat Index Dew Point Humidity Pressure Visibility Wind Dir Wind Speed Gust Speed Precip Events Conditions
12:53 AM 78.1 °F - 63.0 °F 60% 30.06 in 10.0 mi NE 6.9 mph - N/A   Overcast
1:53 AM 78.1 °F - 63.0 °F 60% 30.05 in 10.0 mi NE 6.9 mph - N/A   Overcast
2:53 AM 78.1 °F - 63.0 °F 60% 30.04 in 10.0 mi NNE 3.5 mph - N/A   Overcast
3:53 AM 78.1 °F - 64.0 °F 62% 30.02 in 10.0 mi Calm Calm - N/A   Mostly Cloudy
4:53 AM 77.0 °F - 64.9 °F 66% 30.01 in 10.0 mi NNW 3.5 mph - N/A   Mostly Cloudy
5:53 AM 77.0 °F - 64.0 °F 64% 30.02 in 10.0 mi Calm Calm - N/A   Mostly Cloudy
6:53 AM 75.2 °F - 64.4 °F 69% 30.03 in 10.0 mi Calm Calm - N/A   Mostly Cloudy
7:53 AM 75.2 °F - 64.4 °F 69% 30.04 in 10.0 mi North 4.6 mph - N/A   Mostly Cloudy
8:53 AM 79.0 °F - 66.0 °F 64% 30.06 in 10.0 mi North 5.8 mph - N/A   Mostly Cloudy
9:53 AM 81.0 °F 83.3 °F 66.9 °F 62% 30.07 in 10.0 mi NNE 5.8 mph - N/A   Mostly Cloudy
10:53 AM 82.0 °F 84.5 °F 66.9 °F 60% 30.07 in 10.0 mi ENE 13.8 mph 23.0 mph N/A   Mostly Cloudy
11:53 AM 84.0 °F 86.5 °F 66.9 °F 56% 30.06 in 10.0 mi ENE 17.3 mph 24.2 mph N/A   Mostly Cloudy
12:53 PM 82.9 °F 85.0 °F 66.0 °F 56% 30.06 in 10.0 mi NE 16.1 mph 21.9 mph N/A   Mostly Cloudy
1:53 PM 84.9 °F 86.6 °F 64.9 °F 51% 30.04 in 10.0 mi NE 13.8 mph 23.0 mph N/A   Scattered Clouds
2:53 PM 84.2 °F 85.6 °F 64.4 °F 51% 30.01 in 10.0 mi East 17.3 mph 23.0 mph N/A   Scattered Clouds
3:53 PM 82.9 °F 84.4 °F 64.0 °F 53% 30.00 in 10.0 mi ENE 11.5 mph 21.9 mph N/A   Mostly Cloudy
4:53 PM 82.4 °F 83.9 °F 64.4 °F 54% 29.99 in 10.0 mi ENE 16.1 mph 21.9 mph N/A   Mostly Cloudy
5:53 PM 81.0 °F 82.2 °F 63.0 °F 54% 30.01 in 10.0 mi ENE 15.0 mph 20.7 mph N/A   Scattered Clouds
6:53 PM 80.6 °F 81.8 °F 62.6 °F 54% 30.01 in 10.0 mi ENE 9.2 mph - N/A   Scattered Clouds
7:53 PM 80.1 °F 81.5 °F 63.0 °F 56% 30.02 in 10.0 mi ENE 10.4 mph - N/A   Mostly Cloudy
8:53 PM 78.8 °F - 62.6 °F 57% 30.02 in 10.0 mi NE 11.5 mph - N/A   Partly Cloudy
9:53 PM 79.0 °F - 62.1 °F 56% 30.03 in 10.0 mi NE 6.9 mph - N/A   Partly Cloudy
10:53 PM 78.1 °F - 62.1 °F 58% 30.04 in 10.0 mi NE 4.6 mph - N/A   Scattered Clouds
11:53 PM 78.1 °F - 63.0 °F 60% 30.03 in 10.0 mi NE 5.8 mph - N/A   Scattered Clouds